#�ϑ�����,���ϕ���,���ϕ���,�ő啗��,�ő啗����������,�ő�u�ԕ���,�ő�u�ԕ�����������
#(�N����),(m/s)   ,(16����),(m/s)   ,(16����)        ,(m/s)       ,(16����)            
2015/1/1 0:01,4.2,15,4.3,16,4.5,14
2015/1/1 0:02,4,15,4.2,16,4.9,14
2015/1/1 0:03,4,15,4,16,4.1,14
2015/1/1 0:04,4,15,4,16,5.2,14
2015/1/1 0:05,3.8,15,4,16,4.3,15
2015/1/1 0:06,3.9,15,4,16,11,15
2015/1/1 0:07,4,15,4,15,9.7,15
2015/1/1 0:08,4,15,4,15,10.7,16
2015/1/1 0:09,4.1,15,4.1,15,9.8,16
2015/1/1 0:10,4.1,15,4.1,15,5.8,15
2015/1/1 0:11,4,15,4.1,15,4.1,13
2015/1/1 0:12,4,15,4,15,5.6,11
2015/1/1 0:13,3.9,15,4,15,2.9,10
2015/1/1 0:14,3.7,15,3.9,15,3.7,15
2015/1/1 0:15,3.8,15,3.8,15,7,16
2015/1/1 0:16,3.6,15,3.8,15,6.7,14
2015/1/1 0:17,3.4,14,3.6,15,4.7,15
2015/1/1 0:18,2.9,14,3.3,15,3.3,12
2015/1/1 0:19,2.5,14,2.9,15,2.2,10
2015/1/1 0:20,2.4,14,2.5,15,3.3,1
2015/1/1 0:21,2.4,14,2.4,15,4.4,16
2015/1/1 0:22,2.2,14,2.4,15,1.9,9
2015/1/1 0:23,2.1,14,2.2,15,1.9,8
2015/1/1 0:24,2,14,2.1,15,1.4,7
2015/1/1 0:25,1.7,13,1.9,15,2.1,4
2015/1/1 0:26,1.5,15,1.7,15,2.5,16
2015/1/1 0:27,1.3,16,1.5,14,1.6,14
2015/1/1 0:28,1.3,1,1.3,14,3,14
2015/1/1 0:29,1.6,16,1.6,14,6.2,13
2015/1/1 0:30,1.6,15,1.6,14,3.7,12
2015/1/1 0:31,1.4,13,1.5,14,1.4,9
2015/1/1 0:32,1.5,14,1.5,14,2.1,11
2015/1/1 0:33,1.5,14,1.5,14,2.7,16
2015/1/1 0:34,1.6,14,1.6,14,3.3,16
2015/1/1 0:35,1.8,14,1.8,14,4.1,15
2015/1/1 0:36,1.8,14,1.8,14,2.6,14
2015/1/1 0:37,1.8,14,1.9,14,3.2,16
2015/1/1 0:38,1.9,14,1.9,14,3.5,15
2015/1/1 0:39,1.8,14,1.9,14,4.1,16
2015/1/1 0:40,1.8,14,1.8,14,4.8,1
2015/1/1 0:41,2.2,15,2.2,15,7.2,16
2015/1/1 0:42,2.5,15,2.5,15,7,16
2015/1/1 0:43,2.8,15,2.8,15,5.1,15
2015/1/1 0:44,2.8,15,2.8,15,5.1,16
2015/1/1 0:45,2.6,15,2.8,15,1.6,16
2015/1/1 0:46,2.8,16,2.8,15,6.9,16
2015/1/1 0:47,3,16,3,16,5.2,15
2015/1/1 0:48,3.2,16,3.2,16,6,16
2015/1/1 0:49,3.4,16,3.4,16,7.5,16
2015/1/1 0:50,3.7,16,3.7,16,8.5,15
2015/1/1 0:51,3.6,16,3.7,16,6.3,15
2015/1/1 0:52,3.3,16,3.5,16,4.5,16
2015/1/1 0:53,3.2,16,3.3,16,7.1,1
2015/1/1 0:54,3.2,16,3.3,16,4.1,1
2015/1/1 0:55,3.3,15,3.3,16,2.5,13
2015/1/1 0:56,3.2,15,3.3,16,4.5,12
2015/1/1 0:57,3.2,15,3.2,16,5.5,14
2015/1/1 0:58,3,15,3.2,16,3,15
2015/1/1 0:59,2.7,15,2.9,16,2.1,16
2015/1/1 1:00,2.2,15,2.6,16,2,16
2015/1/1 1:01,2,15,2.2,16,2.2,16
2015/1/1 1:02,1.9,14,2,16,1.3,14
2015/1/1 1:03,1.7,14,1.9,16,3,14
2015/1/1 1:04,1.8,14,1.8,16,7.1,12
2015/1/1 1:05,2,14,2,15,5.4,11
2015/1/1 1:06,2.1,14,2.1,15,5.6,12
2015/1/1 1:07,2,14,2.1,15,4.8,14
2015/1/1 1:08,2.2,13,2.2,15,5.5,13
2015/1/1 1:09,2.5,13,2.5,14,5.7,12
2015/1/1 1:10,2.6,13,2.6,13,3.8,15
2015/1/1 1:11,2.8,13,2.8,13,5.2,11
2015/1/1 1:12,3.1,13,3.1,13,7,13
2015/1/1 1:13,3.3,13,3.3,13,5.1,13
2015/1/1 1:14,3.3,13,3.4,13,4.8,13
2015/1/1 1:15,3.1,13,3.2,13,3.3,16
2015/1/1 1:16,3,13,3,13,4.5,12
2015/1/1 1:17,2.8,13,2.9,13,2.5,15
2015/1/1 1:18,2.6,14,2.8,13,2.4,14
2015/1/1 1:19,2.4,14,2.6,13,4.2,11
2015/1/1 1:20,2.4,13,2.4,13,4.4,12
2015/1/1 1:21,2.5,13,2.6,13,7.9,12
2015/1/1 1:22,2.4,13,2.5,13,4.5,11
2015/1/1 1:23,2.6,13,2.6,13,8.2,12
2015/1/1 1:24,2.7,13,2.7,13,6.9,15
2015/1/1 1:25,2.9,13,2.9,13,5.5,11
2015/1/1 1:26,3,13,3,13,8.5,13
2015/1/1 1:27,3.3,13,3.3,13,8.2,13
2015/1/1 1:28,3.4,13,3.4,13,4.3,15
2015/1/1 1:29,3.4,13,3.4,13,5.5,13
2015/1/1 1:30,3.4,13,3.4,13,2.9,12
2015/1/1 1:31,3.2,13,3.4,13,6.8,12
2015/1/1 1:32,3.5,13,3.5,13,7,12
2015/1/1 1:33,3.4,13,3.5,13,6.5,15
2015/1/1 1:34,3.4,13,3.4,13,6.5,15
2015/1/1 1:35,3.6,13,3.7,13,8.1,15
2015/1/1 1:36,3.6,14,3.7,13,5.1,13
2015/1/1 1:37,3.5,14,3.5,13,6.2,14
2015/1/1 1:38,3.7,14,3.7,13,6.4,14
2015/1/1 1:39,3.7,14,3.7,13,5.8,15
2015/1/1 1:40,3.8,14,3.8,14,4.3,15
2015/1/1 1:41,3.7,15,3.8,14,5.2,14
2015/1/1 1:42,3.4,15,3.7,14,3.3,11
2015/1/1 1:43,3,15,3.4,14,1.5,14
2015/1/1 1:44,2.8,14,3,14,2.1,6
2015/1/1 1:45,2.5,14,2.7,14,3.9,10
2015/1/1 1:46,2.3,13,2.5,14,2.7,12
2015/1/1 1:47,2.1,13,2.3,14,1.9,12
2015/1/1 1:48,1.9,13,2.1,14,3.5,11
2015/1/1 1:49,2,13,2,14,6.2,12
2015/1/1 1:50,2.1,13,2.1,14,4.7,13
2015/1/1 1:51,2.1,13,2.1,15,6.1,14
2015/1/1 1:52,2.2,13,2.2,15,5.4,14
2015/1/1 1:53,2.3,13,2.3,15,3.3,14
2015/1/1 1:54,2.4,13,2.4,14,4.1,14
2015/1/1 1:55,2.5,13,2.5,14,5,13
2015/1/1 1:56,2.5,13,2.5,13,3.9,13
2015/1/1 1:57,2.5,13,2.5,13,3.1,15
2015/1/1 1:58,2.6,13,2.6,13,3.8,2
2015/1/1 1:59,2.4,13,2.5,13,4.3,12
2015/1/1 2:00,2.4,13,2.4,13,4.9,15
2015/1/1 2:01,2.3,13,2.5,13,4.5,11
2015/1/1 2:02,2.4,13,2.4,13,6.3,13
2015/1/1 2:03,2.6,13,2.6,13,6.9,12
2015/1/1 2:04,2.8,13,2.8,13,6.1,15
2015/1/1 2:05,2.7,14,2.9,13,7.6,16
2015/1/1 2:06,2.7,14,2.7,13,1.9,14
2015/1/1 2:07,2.8,14,2.8,13,4.7,12
2015/1/1 2:08,2.8,13,2.8,13,3.3,11
2015/1/1 2:09,2.7,13,2.8,13,2.7,14
2015/1/1 2:10,2.6,13,2.7,13,3.5,14
2015/1/1 2:11,2.5,13,2.6,13,2.7,10
2015/1/1 2:12,2.2,13,2.5,13,1.8,13
2015/1/1 2:13,2.1,13,2.2,13,4.8,14
2015/1/1 2:14,2.1,13,2.1,13,5.1,12
2015/1/1 2:15,2.2,12,2.2,14,6.5,13
2015/1/1 2:16,2.3,12,2.3,14,6.8,13
2015/1/1 2:17,2.5,13,2.5,13,6.5,13
2015/1/1 2:18,2.7,13,2.7,13,7.1,12
2015/1/1 2:19,2.8,13,2.8,13,5.6,15
2015/1/1 2:20,2.8,13,2.8,13,3.2,1
2015/1/1 2:21,2.9,13,2.9,13,5.8,16
2015/1/1 2:22,3,14,3,14,2.5,15
2015/1/1 2:23,2.8,14,3,14,4.7,16
2015/1/1 2:24,2.7,14,2.8,14,3,14
2015/1/1 2:25,2.5,14,2.7,14,2.1,15
2015/1/1 2:26,2.5,14,2.6,14,3.8,11
2015/1/1 2:27,2.3,14,2.5,14,2.6,13
2015/1/1 2:28,2.2,14,2.3,14,6.4,12
2015/1/1 2:29,2.3,13,2.3,14,5.8,13
2015/1/1 2:30,2.3,13,2.3,14,3.2,13
2015/1/1 2:31,2.3,13,2.3,14,7.6,10
2015/1/1 2:32,2.5,13,2.5,14,8.3,10
2015/1/1 2:33,2.6,12,2.6,14,7.5,13
2015/1/1 2:34,2.8,12,2.8,12,6.8,12
2015/1/1 2:35,2.9,12,2.9,12,3.8,10
2015/1/1 2:36,2.9,12,2.9,12,5.8,12
2015/1/1 2:37,3.1,12,3.2,12,6.7,12
2015/1/1 2:38,3.1,12,3.2,12,4.2,10
2015/1/1 2:39,3,12,3,12,5.2,13
2015/1/1 2:40,3.1,12,3.1,12,5,12
2015/1/1 2:41,3.1,12,3.3,12,5.2,12
2015/1/1 2:42,3,12,3.1,12,4.2,9
2015/1/1 2:43,2.9,12,3,12,3.8,9
2015/1/1 2:44,2.8,11,2.8,12,4.9,9
2015/1/1 2:45,2.8,11,2.8,12,3.6,12
2015/1/1 2:46,2.7,11,2.8,12,3.5,1
2015/1/1 2:47,2.4,11,2.6,12,3.2,11
2015/1/1 2:48,2.4,11,2.4,12,3.5,9
2015/1/1 2:49,2.3,11,2.4,12,4.8,15
2015/1/1 2:50,2.4,11,2.5,12,9.8,14
2015/1/1 2:51,2.4,11,2.4,12,5.4,15
2015/1/1 2:52,2.3,11,2.4,12,3.9,9
2015/1/1 2:53,2.3,12,2.3,12,2.9,12
2015/1/1 2:54,2.2,12,2.3,11,3.2,9
2015/1/1 2:55,2.1,12,2.2,11,4.2,9
2015/1/1 2:56,2.1,12,2.1,11,3.2,12
2015/1/1 2:57,2.1,11,2.1,11,3.3,11
2015/1/1 2:58,2.1,12,2.1,11,6.1,9
2015/1/1 2:59,2.2,11,2.2,11,4.3,12
2015/1/1 3:00,1.9,11,2.1,11,3,9
2015/1/1 3:01,1.8,11,1.8,11,2.6,9
2015/1/1 3:02,1.7,10,1.8,11,2,9
2015/1/1 3:03,1.7,10,1.7,12,3,10
2015/1/1 3:04,1.6,10,1.7,12,2.1,9
2015/1/1 3:05,1.5,10,1.6,12,1.4,9
2015/1/1 3:06,1.4,10,1.5,12,2.5,10
2015/1/1 3:07,1.5,10,1.5,12,3,9
2015/1/1 3:08,1.5,10,1.5,12,3.3,9
2015/1/1 3:09,1.5,10,1.5,11,3.2,10
2015/1/1 3:10,1.5,10,1.5,11,3.7,9
2015/1/1 3:11,1.6,10,1.6,11,3.5,9
2015/1/1 3:12,1.7,10,1.7,10,3,9
2015/1/1 3:13,1.7,10,1.7,10,2.9,9
2015/1/1 3:14,1.8,9,1.8,9,3.2,10
2015/1/1 3:15,1.9,10,1.9,10,3.1,11
2015/1/1 3:16,1.9,9,1.9,10,2,9
2015/1/1 3:17,1.8,10,1.8,10,2,10
2015/1/1 3:18,1.8,10,1.8,10,2.2,11
2015/1/1 3:19,1.8,10,1.8,10,3.9,10
2015/1/1 3:20,1.9,10,1.9,10,4.1,10
2015/1/1 3:21,1.8,10,1.9,10,2.9,8
2015/1/1 3:22,1.6,10,1.7,10,1.6,10
2015/1/1 3:23,1.5,10,1.6,10,1.3,7
2015/1/1 3:24,1.5,10,1.5,10,2,13
2015/1/1 3:25,1.6,10,1.6,10,6.3,10
2015/1/1 3:26,1.8,10,1.8,10,5.8,10
2015/1/1 3:27,1.9,10,1.9,10,5.6,12
2015/1/1 3:28,2.2,10,2.2,10,9.1,12
2015/1/1 3:29,2.1,11,2.2,10,4.5,12
2015/1/1 3:30,2.1,11,2.1,10,3.7,9
2015/1/1 3:31,2.2,11,2.2,10,3.8,8
2015/1/1 3:32,2.3,11,2.3,10,4.1,9
2015/1/1 3:33,2.4,11,2.4,11,4.7,12
2015/1/1 3:34,2.6,11,2.6,11,3.7,13
2015/1/1 3:35,2.5,11,2.6,11,3,12
2015/1/1 3:36,2.4,11,2.5,11,3.8,1
2015/1/1 3:37,2.4,11,2.5,11,3.5,11
2015/1/1 3:38,2.1,11,2.4,11,3.2,10
2015/1/1 3:39,2,11,2.1,11,2.1,8
2015/1/1 3:40,1.9,11,2,11,1.4,8
2015/1/1 3:41,1.8,11,1.9,11,2.4,10
2015/1/1 3:42,1.7,11,1.8,11,1.8,9
2015/1/1 3:43,1.6,11,1.7,11,2.1,8
2015/1/1 3:44,1.5,10,1.6,11,2.6,11
2015/1/1 3:45,1.6,10,1.6,11,2.9,11
2015/1/1 3:46,1.5,10,1.6,11,3.6,9
2015/1/1 3:47,1.5,10,1.5,11,6.8,9
2015/1/1 3:48,1.7,10,1.7,11,7.6,9
2015/1/1 3:49,1.8,10,1.8,11,5.2,9
2015/1/1 3:50,2,10,2,10,4.4,8
2015/1/1 3:51,2,10,2,10,3.8,9
2015/1/1 3:52,2,10,2.1,10,2.1,10
2015/1/1 3:53,2.1,10,2.1,10,3.9,10
2015/1/1 3:54,2.2,10,2.2,10,3.9,10
2015/1/1 3:55,2.3,10,2.3,10,4.2,10
2015/1/1 3:56,2.2,10,2.3,10,1.6,10
2015/1/1 3:57,2.1,10,2.2,10,2.7,9
2015/1/1 3:58,1.8,10,2.1,10,2.7,8
2015/1/1 3:59,1.7,10,1.8,10,1.8,7
2015/1/1 4:00,1.6,10,1.7,10,3.1,8
2015/1/1 4:01,1.7,10,1.7,10,5.5,11
2015/1/1 4:02,1.7,10,1.7,10,2.6,11
2015/1/1 4:03,1.6,10,1.8,10,2.6,11
2015/1/1 4:04,1.6,10,1.6,10,3,9
2015/1/1 4:05,1.6,10,1.6,10,6.2,10
2015/1/1 4:06,2,10,2,10,7.4,11
2015/1/1 4:07,2.2,10,2.2,10,6,10
2015/1/1 4:08,2.3,10,2.3,10,4.4,9
2015/1/1 4:09,2.4,10,2.4,10,4.1,10
2015/1/1 4:10,2.6,10,2.6,10,5.7,9
2015/1/1 4:11,2.8,10,2.8,10,12.5,10
2015/1/1 4:12,3.1,10,3.1,10,7.6,9
2015/1/1 4:13,3.4,10,3.4,10,6.9,9
2015/1/1 4:14,3.5,10,3.5,10,4.8,12
2015/1/1 4:15,3.5,10,3.5,10,5.6,10
2015/1/1 4:16,3.6,10,3.6,10,6.5,10
2015/1/1 4:17,3.8,11,3.8,11,6.5,12
2015/1/1 4:18,3.7,11,3.8,11,3.7,14
2015/1/1 4:19,3.7,11,3.7,11,5.5,11
2015/1/1 4:20,3.8,11,3.9,11,8.2,12
2015/1/1 4:21,3.4,11,3.8,11,1.4,13
2015/1/1 4:22,3.1,11,3.4,11,2.7,3
2015/1/1 4:23,2.9,11,3.1,11,4.3,9
2015/1/1 4:24,3,11,3,11,6.3,12
2015/1/1 4:25,3.1,12,3.1,11,7.5,13
2015/1/1 4:26,2.9,12,3.1,11,4.8,13
2015/1/1 4:27,2.5,12,2.8,11,1.6,15
2015/1/1 4:28,2.4,12,2.5,11,1.6,16
2015/1/1 4:29,2.4,12,2.4,11,2.6,12
2015/1/1 4:30,2.2,12,2.4,11,4.8,13
2015/1/1 4:31,2.4,13,2.4,11,4.7,13
2015/1/1 4:32,2.6,13,2.6,11,4.7,11
2015/1/1 4:33,2.6,13,2.7,11,3.3,10
2015/1/1 4:34,2.3,12,2.6,11,2.5,12
2015/1/1 4:35,2.1,12,2.2,12,6.4,12
2015/1/1 4:36,2.3,12,2.3,12,7.1,11
2015/1/1 4:37,2.6,12,2.6,13,8.5,13
2015/1/1 4:38,2.9,12,2.9,12,6.5,11
2015/1/1 4:39,3,11,3,11,5.6,11
2015/1/1 4:40,3,11,3,11,6.9,9
2015/1/1 4:41,3.1,11,3.1,11,6.1,9
2015/1/1 4:42,3.1,11,3.1,11,4.7,9
2015/1/1 4:43,3.1,10,3.1,11,4.2,9
2015/1/1 4:44,3.2,10,3.2,10,4.9,9
2015/1/1 4:45,3.2,10,3.3,10,3.9,10
2015/1/1 4:46,3,10,3.2,10,4.4,11
2015/1/1 4:47,2.9,10,3,10,5.6,8
2015/1/1 4:48,2.8,10,2.9,10,6.2,10
2015/1/1 4:49,2.8,10,2.8,10,6.2,10
2015/1/1 4:50,2.9,10,2.9,10,5.8,10
2015/1/1 4:51,2.8,10,2.8,10,3.7,10
2015/1/1 4:52,2.7,10,2.7,10,6.8,10
2015/1/1 4:53,2.9,10,2.9,10,6.5,10
2015/1/1 4:54,3,10,3,10,6.1,11
2015/1/1 4:55,3.3,10,3.3,10,7.8,10
2015/1/1 4:56,3.7,10,3.7,10,12.4,11
2015/1/1 4:57,4,10,4,10,9,13
2015/1/1 4:58,4.2,11,4.2,11,7.6,10
2015/1/1 4:59,4.2,11,4.2,11,7.7,11
2015/1/1 5:00,4.2,11,4.2,11,6.8,14
2015/1/1 5:01,4.3,11,4.3,11,7.2,11
2015/1/1 5:02,4.4,11,4.5,11,6.5,13
2015/1/1 5:03,4.3,11,4.4,11,7.1,14
2015/1/1 5:04,4.2,11,4.3,11,5.1,10
2015/1/1 5:05,4,12,4.2,11,9.1,12
2015/1/1 5:06,3.9,12,4.1,11,7.4,13
2015/1/1 5:07,3.7,12,3.8,11,7.1,11
2015/1/1 5:08,3.5,12,3.7,11,7.6,11
2015/1/1 5:09,3.7,12,3.7,11,7.9,13
2015/1/1 5:10,3.8,12,3.8,11,8.3,10
2015/1/1 5:11,3.6,12,3.7,11,4.9,13
2015/1/1 5:12,3.5,12,3.6,11,6.8,13
2015/1/1 5:13,3.6,12,3.6,11,7.1,12
2015/1/1 5:14,3.7,12,3.7,11,6.7,14
2015/1/1 5:15,3.5,12,3.7,12,3.6,13
2015/1/1 5:16,3.5,12,3.5,12,6.9,11
2015/1/1 5:17,3.5,12,3.6,12,7.9,12
2015/1/1 5:18,3.4,12,3.5,12,4.4,11
2015/1/1 5:19,3.2,12,3.4,12,4.4,12
2015/1/1 5:20,3,12,3.2,12,4.1,13
2015/1/1 5:21,3.2,12,3.2,12,5.5,13
2015/1/1 5:22,3.3,12,3.4,12,6.5,10
2015/1/1 5:23,3.2,12,3.3,12,4.7,13
2015/1/1 5:24,3.3,12,3.3,12,6.3,10
2015/1/1 5:25,3.4,12,3.4,12,6,13
2015/1/1 5:26,3.2,12,3.4,12,4.5,13
2015/1/1 5:27,2.9,12,3.2,12,2.6,9
2015/1/1 5:28,2.8,12,2.9,12,2.5,13
2015/1/1 5:29,2.8,12,2.8,12,5.6,13
2015/1/1 5:30,2.9,12,2.9,12,6.8,12
2015/1/1 5:31,2.8,12,2.9,12,5.6,13
2015/1/1 5:32,2.7,12,2.8,12,5.6,13
2015/1/1 5:33,2.7,13,2.7,12,4.9,12
2015/1/1 5:34,2.7,13,2.7,12,6.5,12
2015/1/1 5:35,2.7,13,2.8,12,6.5,15
2015/1/1 5:36,3.1,13,3.1,12,8.2,12
2015/1/1 5:37,3.4,13,3.4,13,9.2,12
2015/1/1 5:38,3.5,13,3.5,13,5.6,14
2015/1/1 5:39,3.6,13,3.6,13,7.4,12
2015/1/1 5:40,3.8,13,3.8,13,8.1,15
2015/1/1 5:41,3.8,13,3.9,13,7.2,16
2015/1/1 5:42,3.8,13,3.8,13,4.3,11
2015/1/1 5:43,3.8,13,3.8,13,5.6,13
2015/1/1 5:44,3.9,13,3.9,13,6.5,15
2015/1/1 5:45,3.7,13,3.9,13,4.3,16
2015/1/1 5:46,3.4,13,3.6,13,3.9,13
2015/1/1 5:47,3,13,3.3,13,2.6,11
2015/1/1 5:48,3,13,3,13,5.2,13
2015/1/1 5:49,3,13,3,13,5.1,12
2015/1/1 5:50,2.5,13,2.9,13,3.5,15
2015/1/1 5:51,2.4,13,2.5,13,3.6,12
2015/1/1 5:52,2.4,13,2.5,13,4.7,11
2015/1/1 5:53,2.3,12,2.5,13,4.5,13
2015/1/1 5:54,2.1,12,2.2,13,3.1,10
2015/1/1 5:55,2.1,12,2.2,13,4.1,12
2015/1/1 5:56,2.1,12,2.1,13,4.3,11
2015/1/1 5:57,2.3,12,2.3,13,6.2,14
2015/1/1 5:58,2.3,12,2.3,13,4.9,13
2015/1/1 5:59,2.3,12,2.3,13,6.7,14
2015/1/1 6:00,2.7,12,2.7,12,8.3,15
2015/1/1 6:01,3,13,3,13,7.5,16
2015/1/1 6:02,3.3,13,3.3,13,9.3,16
2015/1/1 6:03,3.5,14,3.5,14,8.9,16
2015/1/1 6:04,3.6,14,3.6,14,5.5,1
2015/1/1 6:05,3.9,14,3.9,14,9.2,14
2015/1/1 6:06,4,14,4,14,5.2,16
2015/1/1 6:07,4,14,4.1,15,5.8,12
2015/1/1 6:08,3.9,14,4,15,3.5,12
2015/1/1 6:09,3.7,14,3.9,15,3,13
2015/1/1 6:10,3.6,14,3.7,15,7.7,13
2015/1/1 6:11,3.5,14,3.6,15,6.7,12
2015/1/1 6:12,3.2,14,3.5,15,3.6,14
2015/1/1 6:13,2.8,13,3.1,15,3.3,10
2015/1/1 6:14,2.7,14,2.8,15,4.1,10
2015/1/1 6:15,2.6,13,2.7,15,5.5,11
2015/1/1 6:16,2.4,13,2.6,15,3.5,12
2015/1/1 6:17,2.4,12,2.4,14,4.4,9
2015/1/1 6:18,2.6,12,2.6,14,5.8,10
2015/1/1 6:19,2.9,12,2.9,14,11,10
2015/1/1 6:20,2.9,12,3,14,11.5,10
2015/1/1 6:21,3.1,11,3.1,14,10.7,11
2015/1/1 6:22,3.2,11,3.2,11,5.8,10
2015/1/1 6:23,3.7,11,3.7,11,7.4,10
2015/1/1 6:24,3.7,10,3.7,11,5.6,10
2015/1/1 6:25,3.7,10,3.7,11,6.7,9
2015/1/1 6:26,4,10,4,10,7.1,10
2015/1/1 6:27,4,10,4,10,9,12
2015/1/1 6:28,4.2,10,4.2,10,9.2,12
2015/1/1 6:29,4.2,10,4.3,10,8.5,9
2015/1/1 6:30,4.3,10,4.3,10,9.1,10
2015/1/1 6:31,4.2,10,4.4,10,8.7,10
2015/1/1 6:32,4.4,10,4.4,10,8.7,15
2015/1/1 6:33,4.2,11,4.4,10,9.5,10
2015/1/1 6:34,4.5,11,4.5,11,8.5,8
2015/1/1 6:35,4.7,11,4.7,11,11.1,9
2015/1/1 6:36,4.6,11,4.8,11,9.2,12
2015/1/1 6:37,4.7,11,4.8,11,8.4,12
2015/1/1 6:38,4.7,11,4.7,11,14.9,10
2015/1/1 6:39,4.7,11,4.8,11,11.4,10
2015/1/1 6:40,4.7,11,4.7,11,11.9,10
2015/1/1 6:41,4.6,11,4.7,11,6.9,11
2015/1/1 6:42,4.5,11,4.6,11,7.8,15
2015/1/1 6:43,4.4,11,4.5,11,7.2,8
2015/1/1 6:44,4.3,11,4.4,11,8.5,10
2015/1/1 6:45,4.1,11,4.3,11,8.5,10
2015/1/1 6:46,4,11,4.1,11,3.9,12
2015/1/1 6:47,3.7,11,3.9,11,3.9,13
2015/1/1 6:48,3.2,12,3.7,11,1.6,14
2015/1/1 6:49,3.3,12,3.3,11,8.3,13
2015/1/1 6:50,3,12,3.3,11,5.6,11
2015/1/1 6:51,2.9,12,2.9,11,6.7,10
2015/1/1 6:52,2.9,12,2.9,11,8.3,12
2015/1/1 6:53,2.9,12,3.1,11,8.1,11
2015/1/1 6:54,2.8,12,2.9,11,5.1,11
2015/1/1 6:55,2.8,12,2.8,11,5.8,12
2015/1/1 6:56,3.1,12,3.1,11,9.7,11
2015/1/1 6:57,3.3,12,3.3,11,8.4,10
2015/1/1 6:58,3.5,12,3.5,12,6.1,11
2015/1/1 6:59,3.7,12,3.7,12,11.4,11
2015/1/1 7:00,3.9,12,3.9,12,8.3,12
2015/1/1 7:01,3.9,12,3.9,12,5.6,12
2015/1/1 7:02,3.8,12,3.9,12,7,10
2015/1/1 7:03,3.8,12,3.8,12,5,13
2015/1/1 7:04,3.6,12,3.8,12,2.6,12
2015/1/1 7:05,3.5,12,3.6,12,4.3,15
2015/1/1 7:06,3.3,12,3.5,12,6.9,11
2015/1/1 7:07,3.2,12,3.3,12,6.9,12
2015/1/1 7:08,3.3,12,3.3,12,7.5,11
2015/1/1 7:09,3.2,12,3.4,12,7.8,11
2015/1/1 7:10,3.2,12,3.2,12,8.9,11
2015/1/1 7:11,3.3,12,3.3,12,7.8,14
2015/1/1 7:12,3.3,12,3.3,12,6.3,10
2015/1/1 7:13,3.3,12,3.3,12,6.5,12
2015/1/1 7:14,3.6,12,3.6,12,7.8,13
2015/1/1 7:15,3.9,12,3.9,12,7.7,10
2015/1/1 7:16,3.9,11,4,12,6.7,10
2015/1/1 7:17,3.9,11,3.9,12,9.4,11
2015/1/1 7:18,3.8,12,4,12,7.1,10
2015/1/1 7:19,3.9,12,3.9,12,9.9,11
2015/1/1 7:20,4.1,12,4.1,12,9.1,12
2015/1/1 7:21,4.1,12,4.1,12,8.6,12
2015/1/1 7:22,4.3,12,4.3,12,9.7,12
2015/1/1 7:23,4.3,12,4.4,12,7,14
2015/1/1 7:24,4.3,12,4.3,12,8.4,12
2015/1/1 7:25,4.2,12,4.3,12,6.9,12
2015/1/1 7:26,4.2,12,4.2,12,6.5,12
2015/1/1 7:27,4.4,12,4.5,12,9,13
2015/1/1 7:28,4.6,12,4.6,12,8.4,12
2015/1/1 7:29,4.4,12,4.7,12,6.1,12
2015/1/1 7:30,4.3,12,4.3,12,7.5,12
2015/1/1 7:31,4.3,12,4.4,12,7.9,13
2015/1/1 7:32,4,12,4.3,12,3.6,10
2015/1/1 7:33,3.8,12,4,12,4.5,10
2015/1/1 7:34,3.5,12,3.8,12,2.1,14
2015/1/1 7:35,3.3,12,3.5,12,5.7,8
2015/1/1 7:36,3.4,12,3.4,12,6.9,10
2015/1/1 7:37,3.3,11,3.4,12,6.7,9
2015/1/1 7:38,3.2,11,3.3,12,7.5,9
2015/1/1 7:39,3.3,11,3.3,12,5.5,11
2015/1/1 7:40,3.1,11,3.3,12,4.7,10
2015/1/1 7:41,2.9,11,3.1,12,4.7,10
2015/1/1 7:42,3.1,11,3.1,12,6.2,10
2015/1/1 7:43,3.2,11,3.2,12,4.5,11
2015/1/1 7:44,3.4,11,3.4,12,5.4,9
2015/1/1 7:45,3.5,11,3.5,11,6.7,11
2015/1/1 7:46,3.3,11,3.5,11,4.7,13
2015/1/1 7:47,3.2,11,3.2,11,5.2,13
2015/1/1 7:48,3,11,3.1,11,5.1,9
2015/1/1 7:49,2.8,11,2.9,11,3.9,9
2015/1/1 7:50,2.7,11,2.8,11,7,9
2015/1/1 7:51,2.8,11,2.8,11,5.2,11
2015/1/1 7:52,2.9,11,2.9,11,7.6,12
2015/1/1 7:53,3,12,3,11,7.7,13
2015/1/1 7:54,3.1,12,3.2,11,7.2,12
2015/1/1 7:55,3,12,3.1,11,4.8,9
2015/1/1 7:56,3.1,11,3.1,11,6.3,10
2015/1/1 7:57,3,11,3.1,12,6.3,10
2015/1/1 7:58,3.3,12,3.3,12,9.3,14
2015/1/1 7:59,3.5,12,3.5,12,6.3,12
2015/1/1 8:00,3.4,12,3.4,12,5.6,12
2015/1/1 8:01,3.6,12,3.6,12,6.8,10
2015/1/1 8:02,3.4,12,3.6,12,7,10
2015/1/1 8:03,3.4,12,3.4,12,6.7,12
2015/1/1 8:04,3.3,12,3.4,12,5.4,12
2015/1/1 8:05,3.5,12,3.5,12,6.3,12
2015/1/1 8:06,3.6,12,3.6,12,7.6,13
2015/1/1 8:07,3.7,12,3.7,12,8.1,13
2015/1/1 8:08,3.8,12,3.8,12,10.9,13
2015/1/1 8:09,3.6,12,3.7,12,4.8,13
2015/1/1 8:10,3.6,12,3.6,12,3.7,12
2015/1/1 8:11,3.6,12,3.6,12,8.5,12
2015/1/1 8:12,3.6,12,3.7,12,9.7,12
2015/1/1 8:13,3.6,12,3.7,12,8.1,13
2015/1/1 8:14,3.5,12,3.6,12,2.5,9
2015/1/1 8:15,3.4,12,3.5,12,7.5,12
2015/1/1 8:16,3.2,12,3.4,12,4.8,14
2015/1/1 8:17,3.3,12,3.4,12,8.3,12
2015/1/1 8:18,2.9,12,3.3,12,4.7,9
2015/1/1 8:19,2.8,12,2.9,12,2.7,8
2015/1/1 8:20,2.9,12,2.9,12,5.6,10
2015/1/1 8:21,2.7,12,3,12,4.7,12
2015/1/1 8:22,2.5,12,2.7,12,4.9,11
2015/1/1 8:23,2.3,12,2.5,12,4.7,11
2015/1/1 8:24,2.4,12,2.4,12,4.7,10
2015/1/1 8:25,2.3,12,2.4,12,6.2,9
2015/1/1 8:26,2.3,12,2.3,12,5.1,11
2015/1/1 8:27,2.1,12,2.2,12,6.1,12
2015/1/1 8:28,2.2,12,2.2,12,4.8,12
2015/1/1 8:29,2.4,12,2.4,12,5.7,12
2015/1/1 8:30,2.3,12,2.4,12,3,12
2015/1/1 8:31,2.3,12,2.3,12,4.9,13
2015/1/1 8:32,2.3,12,2.4,12,5.2,13
2015/1/1 8:33,2.4,12,2.4,12,4.8,12
2015/1/1 8:34,2.4,12,2.5,12,5.1,12
2015/1/1 8:35,2.3,12,2.3,12,4.5,12
2015/1/1 8:36,2.4,12,2.5,12,6.2,12
2015/1/1 8:37,2.5,12,2.5,12,7.5,12
2015/1/1 8:38,2.5,12,2.5,12,5.2,12
2015/1/1 8:39,2.4,12,2.5,12,4.4,9
2015/1/1 8:40,2.5,12,2.5,12,6.2,12
2015/1/1 8:41,2.7,12,2.7,12,8.6,9
2015/1/1 8:42,2.9,11,2.9,12,9,12
2015/1/1 8:43,3,11,3,11,7.6,10
2015/1/1 8:44,3.2,11,3.2,11,6.5,10
2015/1/1 8:45,3.3,11,3.3,11,5.7,10
2015/1/1 8:46,3.4,11,3.4,11,7,9
2015/1/1 8:47,3.2,11,3.4,11,3.5,9
2015/1/1 8:48,3.2,11,3.2,11,6.7,11
2015/1/1 8:49,3.4,11,3.4,11,6.5,12
2015/1/1 8:50,3.5,11,3.5,11,7,10
2015/1/1 8:51,3.5,11,3.5,11,8.2,12
2015/1/1 8:52,3.3,11,3.5,11,6.9,9
2015/1/1 8:53,3.4,11,3.4,11,7.4,9
2015/1/1 8:54,3.5,11,3.5,11,8.4,9
2015/1/1 8:55,3.6,11,3.6,11,8.6,10
2015/1/1 8:56,3.6,11,3.6,11,7.8,10
2015/1/1 8:57,3.6,11,3.6,11,5.1,11
2015/1/1 8:58,3.7,11,3.7,11,8.6,10
2015/1/1 8:59,3.8,11,3.9,11,8.6,10
2015/1/1 9:00,3.8,11,3.8,11,7,10
2015/1/1 9:01,3.7,11,3.8,11,6.5,13
2015/1/1 9:02,3.7,11,3.7,11,5.6,9
2015/1/1 9:03,3.7,11,3.8,11,8.4,9
2015/1/1 9:04,3.7,10,3.7,11,6.5,9
2015/1/1 9:05,3.6,10,3.7,11,7.9,10
2015/1/1 9:06,3.7,10,3.7,11,7.4,10
2015/1/1 9:07,3.8,10,3.8,11,7.2,10
2015/1/1 9:08,3.8,10,3.9,11,6,10
2015/1/1 9:09,3.7,10,3.8,10,7.1,9
2015/1/1 9:10,3.7,10,3.8,10,7.8,10
2015/1/1 9:11,3.7,10,3.7,10,8.5,9
2015/1/1 9:12,4,10,4,10,7.7,10
2015/1/1 9:13,4.1,10,4.1,10,8.3,10
2015/1/1 9:14,4.2,10,4.2,10,7.2,10
2015/1/1 9:15,4.2,10,4.3,10,7.9,8
2015/1/1 9:16,4.1,10,4.2,10,5.5,11
2015/1/1 9:17,4.2,10,4.2,10,7.1,11
2015/1/1 9:18,4.6,10,4.6,10,10,11
2015/1/1 9:19,4.7,10,4.7,10,9,9
2015/1/1 9:20,4.6,10,4.7,10,8.5,10
2015/1/1 9:21,4.7,10,4.7,10,9.9,10
2015/1/1 9:22,4.9,10,4.9,10,12.7,10
2015/1/1 9:23,4.5,10,4.8,10,6.7,12
2015/1/1 9:24,4.5,10,4.5,10,6.3,9
2015/1/1 9:25,4.6,10,4.6,10,10.6,10
2015/1/1 9:26,4.7,10,4.7,10,9.3,8
2015/1/1 9:27,4.8,10,4.8,10,6.9,9
2015/1/1 9:28,4.5,10,4.8,10,8.2,9
2015/1/1 9:29,4.4,10,4.5,10,5.4,9
2015/1/1 9:30,4.3,10,4.4,10,4.1,10
2015/1/1 9:31,4,10,4.3,10,4.3,11
2015/1/1 9:32,3.9,10,4,10,7.2,12
2015/1/1 9:33,4.1,10,4.1,10,6.9,10
2015/1/1 9:34,4.1,10,4.1,10,7.1,9
2015/1/1 9:35,4,11,4.1,10,7.1,11
2015/1/1 9:36,3.9,10,3.9,10,7.2,10
2015/1/1 9:37,3.8,10,4,10,7.2,9
2015/1/1 9:38,3.7,10,3.8,10,5.1,10
2015/1/1 9:39,3.7,10,3.7,10,5.1,10
2015/1/1 9:40,3.7,11,3.7,10,5.2,9
2015/1/1 9:41,3.8,10,3.8,10,7.1,10
2015/1/1 9:42,3.7,11,3.9,10,7.6,10
2015/1/1 9:43,3.7,11,3.7,10,7.2,11
2015/1/1 9:44,3.6,11,3.7,10,4.2,10
2015/1/1 9:45,3.4,11,3.5,10,5.5,11
2015/1/1 9:46,3.3,11,3.5,10,5.8,11
2015/1/1 9:47,3.3,11,3.3,10,5.6,10
2015/1/1 9:48,3.1,11,3.3,10,5.2,10
2015/1/1 9:49,3,11,3.1,10,2.6,11
2015/1/1 9:50,2.8,11,3,10,1.8,12
2015/1/1 9:51,2.6,11,2.8,10,6.1,12
2015/1/1 9:52,2.5,11,2.6,11,5.8,10
2015/1/1 9:53,2.3,11,2.5,11,4.8,11
2015/1/1 9:54,2.3,11,2.3,11,7.4,10
2015/1/1 9:55,2.5,11,2.5,11,8.6,11
2015/1/1 9:56,2.4,11,2.5,11,5.7,10
2015/1/1 9:57,2.2,11,2.4,11,2.9,12
2015/1/1 9:58,2.3,11,2.3,11,7.8,10
2015/1/1 9:59,2.5,11,2.5,11,7.1,10
2015/1/1 10:00,2.9,11,2.9,11,8.5,10
2015/1/1 10:01,2.9,11,3,11,7.8,11
2015/1/1 10:02,2.8,11,2.9,11,6.2,9
2015/1/1 10:03,3.2,11,3.2,11,10.7,10
2015/1/1 10:04,3.1,11,3.3,11,4.1,11
2015/1/1 10:05,3.2,11,3.2,11,7.7,10
2015/1/1 10:06,3.4,11,3.4,11,6.7,11
2015/1/1 10:07,3.6,11,3.6,11,6.2,10
2015/1/1 10:08,3.8,11,3.8,11,11.5,14
2015/1/1 10:09,3.8,11,3.8,11,5.7,10
2015/1/1 10:10,3.6,11,3.8,11,5.2,12
2015/1/1 10:11,3.6,11,3.6,11,4.4,12
2015/1/1 10:12,3.5,11,3.5,11,4.7,11
2015/1/1 10:13,3.4,11,3.4,11,7.7,11
2015/1/1 10:14,3.6,11,3.6,11,6.5,10
2015/1/1 10:15,3.4,11,3.6,11,5.5,10
2015/1/1 10:16,3.5,11,3.6,11,8.1,10
2015/1/1 10:17,3.6,11,3.6,11,6.8,12
2015/1/1 10:18,3.4,11,3.6,11,4.1,10
2015/1/1 10:19,3.4,11,3.4,11,8.3,13
2015/1/1 10:20,3.5,11,3.5,11,6.9,12
2015/1/1 10:21,3.7,11,3.7,11,8.7,10
2015/1/1 10:22,3.8,11,3.9,11,7.4,10
2015/1/1 10:23,3.6,11,3.9,11,6,8
2015/1/1 10:24,3.6,11,3.6,11,7.1,9
2015/1/1 10:25,3.7,11,3.7,11,8.2,10
2015/1/1 10:26,3.6,10,3.7,11,7.4,8
2015/1/1 10:27,3.6,10,3.6,11,10,10
2015/1/1 10:28,3.7,10,3.7,11,7,11
2015/1/1 10:29,3.6,10,3.8,11,6.1,10
2015/1/1 10:30,3.6,10,3.7,11,5.4,9
2015/1/1 10:31,3.5,10,3.6,11,5.2,10
2015/1/1 10:32,3.5,10,3.5,11,5.6,10
2015/1/1 10:33,3.4,10,3.5,10,5.2,9
2015/1/1 10:34,3.5,10,3.5,10,5.6,10
2015/1/1 10:35,3.5,10,3.6,10,6.9,10
2015/1/1 10:36,3.4,10,3.5,10,6.8,9
2015/1/1 10:37,3.1,10,3.4,10,4.2,7
2015/1/1 10:38,3.1,10,3.2,10,5,11
2015/1/1 10:39,3,10,3.1,10,4.9,10
2015/1/1 10:40,3.1,10,3.1,10,5.7,8
2015/1/1 10:41,3.2,10,3.2,10,8.5,10
2015/1/1 10:42,3.3,10,3.3,10,6.4,10
2015/1/1 10:43,3.7,10,3.7,10,9.9,10
2015/1/1 10:44,3.5,10,3.7,10,5.6,8
2015/1/1 10:45,3.2,10,3.5,10,5.2,9
2015/1/1 10:46,3.2,10,3.2,10,7.1,9
2015/1/1 10:47,3.5,10,3.5,10,7.6,9
2015/1/1 10:48,3.7,10,3.7,10,8.2,11
2015/1/1 10:49,3.8,10,3.8,10,7,8
2015/1/1 10:50,3.9,10,3.9,10,6.7,10
2015/1/1 10:51,3.8,10,3.9,10,6.3,10
2015/1/1 10:52,3.9,10,3.9,10,7.5,10
2015/1/1 10:53,3.8,10,3.9,10,9.2,10
2015/1/1 10:54,4,10,4,10,6.8,10
2015/1/1 10:55,4.1,10,4.2,10,6.1,10
2015/1/1 10:56,4.2,10,4.2,10,7.5,10
2015/1/1 10:57,4.3,10,4.4,10,8.7,10
2015/1/1 10:58,4.2,10,4.3,10,8.4,10
2015/1/1 10:59,4,10,4.2,10,3.1,8
2015/1/1 11:00,3.8,10,3.9,10,4.8,9
2015/1/1 11:01,3.7,10,3.8,10,6.5,9
2015/1/1 11:02,3.6,10,3.7,10,7.2,10
2015/1/1 11:03,3.5,10,3.6,10,7.8,11
2015/1/1 11:04,3.4,10,3.5,10,4.8,10
2015/1/1 11:05,3.2,10,3.3,10,5,10
2015/1/1 11:06,3.2,10,3.3,10,6,9
2015/1/1 11:07,3.1,10,3.2,10,7,10
2015/1/1 11:08,3.1,10,3.1,10,7.5,9
2015/1/1 11:09,3.4,10,3.4,10,10,10
2015/1/1 11:10,3.5,10,3.5,10,7.9,11
2015/1/1 11:11,3.8,10,3.8,10,11.8,9
2015/1/1 11:12,4,10,4,10,9.9,10